TimeCST,TemperatureF,Dew PointF,Humidity,Sea Level PressureIn,VisibilityMPH,Wind Direction,Wind SpeedMPH,Gust SpeedMPH,PrecipitationIn,Events,Conditions,WindDirDegrees,DateUTC
12:15 AM,44.6,21.2,39,30.16,10.0,SSW,6.9,-,N/A,,Clear,200,2012-12-14 06:15:00
12:35 AM,42.8,21.2,42,30.15,10.0,South,6.9,-,N/A,,Clear,190,2012-12-14 06:35:00
12:55 AM,44.6,21.2,39,30.16,10.0,South,6.9,-,N/A,,Clear,190,2012-12-14 06:55:00
1:16 AM,42.8,21.2,42,30.14,10.0,South,6.9,-,N/A,,Clear,180,2012-12-14 07:16:00
1:35 AM,42.8,19.4,39,30.14,10.0,South,6.9,-,N/A,,Clear,180,2012-12-14 07:35:00
1:55 AM,42.8,19.4,39,30.14,10.0,South,4.6,-,N/A,,Clear,180,2012-12-14 07:55:00
2:35 AM,41.0,19.4,42,30.16,10.0,South,5.8,-,N/A,,Clear,170,2012-12-14 08:35:00
2:55 AM,37.4,19.4,48,30.15,10.0,SSE,6.9,-,N/A,,Clear,160,2012-12-14 08:55:00
3:15 AM,37.4,19.4,48,30.14,10.0,SSE,5.8,-,N/A,,Clear,150,2012-12-14 09:15:00
3:36 AM,37.4,19.4,48,30.14,10.0,SSE,3.5,-,N/A,,Clear,150,2012-12-14 09:36:00
3:55 AM,35.6,23.0,60,30.14,10.0,Calm,Calm,-,N/A,,Clear,0,2012-12-14 09:55:00
4:15 AM,37.4,19.4,48,30.14,10.0,SSE,4.6,-,N/A,,Clear,150,2012-12-14 10:15:00
5:15 AM,35.6,19.4,52,30.13,10.0,Calm,Calm,-,N/A,,Clear,0,2012-12-14 11:15:00
5:35 AM,35.6,19.4,52,30.13,10.0,Calm,Calm,-,N/A,,Clear,0,2012-12-14 11:35:00
6:15 AM,37.4,19.4,48,30.14,10.0,SE,4.6,-,N/A,,Clear,140,2012-12-14 12:15:00
6:35 AM,37.4,19.4,48,30.14,10.0,SSE,4.6,-,N/A,,Clear,160,2012-12-14 12:35:00
6:55 AM,35.6,21.2,56,30.14,10.0,SSE,5.8,-,N/A,,Clear,150,2012-12-14 12:55:00
7:15 AM,37.4,21.2,52,30.15,10.0,SSE,4.6,-,N/A,,Clear,150,2012-12-14 13:15:00
7:35 AM,37.4,21.2,52,30.14,10.0,SSE,4.6,-,N/A,,Clear,150,2012-12-14 13:35:00
7:55 AM,37.4,21.2,52,30.14,10.0,SSE,5.8,-,N/A,,Clear,160,2012-12-14 13:55:00
8:35 AM,42.8,26.6,53,30.13,10.0,SSE,6.9,-,N/A,,Clear,150,2012-12-14 14:35:00
8:55 AM,44.6,24.8,46,30.14,10.0,SSE,5.8,-,N/A,,Clear,160,2012-12-14 14:55:00
9:15 AM,44.6,26.6,49,30.12,10.0,SE,5.8,-,N/A,,Clear,140,2012-12-14 15:15:00
9:36 AM,46.4,26.6,46,30.13,10.0,SSE,5.8,-,N/A,,Clear,160,2012-12-14 15:36:00
9:55 AM,48.2,24.8,40,30.13,10.0,South,8.1,-,N/A,,Clear,180,2012-12-14 15:55:00
10:15 AM,50.0,24.8,37,30.14,10.0,South,6.9,-,N/A,,Clear,180,2012-12-14 16:15:00
10:55 AM,51.8,26.6,38,30.13,10.0,South,10.4,-,N/A,,Overcast,170,2012-12-14 16:55:00
11:15 AM,53.6,24.8,33,30.12,10.0,South,9.2,-,N/A,,Mostly Cloudy,180,2012-12-14 17:15:00
11:35 AM,53.6,24.8,33,30.12,10.0,SSW,9.2,-,N/A,,Scattered Clouds,200,2012-12-14 17:35:00
11:56 AM,53.6,24.8,33,30.11,10.0,SSW,10.4,-,N/A,,Overcast,200,2012-12-14 17:56:00
12:15 PM,53.6,24.8,33,30.10,10.0,SSW,8.1,-,N/A,,Overcast,210,2012-12-14 18:15:00
12:55 PM,53.6,23.0,30,30.06,10.0,South,8.1,-,N/A,,Overcast,190,2012-12-14 18:55:00
1:15 PM,55.4,21.2,26,30.05,10.0,South,8.1,-,N/A,,Overcast,190,2012-12-14 19:15:00
1:35 PM,55.4,21.2,26,30.04,10.0,South,6.9,-,N/A,,Overcast,170,2012-12-14 19:35:00
1:55 PM,55.4,23.0,29,30.02,10.0,South,6.9,-,N/A,,Overcast,170,2012-12-14 19:55:00
2:15 PM,55.4,24.8,31,30.01,10.0,South,5.8,-,N/A,,Overcast,170,2012-12-14 20:15:00
2:35 PM,55.4,24.8,31,30.00,10.0,SSE,9.2,-,N/A,,Overcast,150,2012-12-14 20:35:00
2:55 PM,55.4,24.8,31,29.98,10.0,SSE,8.1,-,N/A,,Overcast,150,2012-12-14 20:55:00
3:16 PM,53.6,28.4,38,29.98,10.0,SE,6.9,-,N/A,,Overcast,140,2012-12-14 21:16:00
3:35 PM,53.6,26.6,35,29.97,10.0,SE,9.2,-,N/A,,Overcast,140,2012-12-14 21:35:00
3:55 PM,51.8,28.4,41,29.96,10.0,SE,9.2,-,N/A,,Overcast,140,2012-12-14 21:55:00
4:15 PM,48.2,33.8,58,29.96,9.0,SSE,4.6,-,0.01,,Mostly Cloudy,160,2012-12-14 22:15:00
4:35 PM,48.2,33.8,58,29.96,10.0,SE,9.2,16.1,0.01,,Overcast,140,2012-12-14 22:35:00
4:55 PM,46.4,35.6,66,29.95,10.0,Calm,Calm,-,0.01,,Overcast,0,2012-12-14 22:55:00
5:15 PM,46.4,35.6,66,29.97,10.0,SW,3.5,-,0.01,,Overcast,230,2012-12-14 23:15:00
5:55 PM,44.6,37.4,76,29.92,10.0,SE,10.4,-,0.05,,Overcast,130,2012-12-14 23:55:00
6:15 PM,44.6,35.6,71,29.91,10.0,SE,11.5,-,N/A,,Mostly Cloudy,140,2012-12-15 00:15:00
6:55 PM,46.4,33.8,62,29.92,10.0,South,12.7,16.1,N/A,,Overcast,180,2012-12-15 00:55:00
7:15 PM,46.4,33.8,62,29.93,10.0,South,12.7,19.6,0.01,,Overcast,180,2012-12-15 01:15:00
7:35 PM,46.4,33.8,62,29.93,10.0,South,17.3,23.0,0.01,,Overcast,170,2012-12-15 01:35:00
7:56 PM,44.6,35.6,71,29.94,10.0,South,8.1,-,N/A,,Overcast,180,2012-12-15 01:56:00
8:15 PM,44.6,35.6,71,29.91,10.0,SSE,9.2,-,N/A,,Overcast,150,2012-12-15 02:15:00
8:35 PM,44.6,35.6,71,29.90,10.0,SSE,13.8,25.3,N/A,,Overcast,150,2012-12-15 02:35:00
8:55 PM,44.6,37.4,76,29.88,10.0,SE,15.0,18.4,N/A,,Overcast,140,2012-12-15 02:55:00
9:15 PM,42.8,37.4,81,29.87,10.0,SE,13.8,-,N/A,,Overcast,140,2012-12-15 03:15:00
9:35 PM,42.8,37.4,81,29.86,10.0,SE,11.5,-,N/A,,Overcast,140,2012-12-15 03:35:00
9:55 PM,44.6,37.4,76,29.84,9.0,SE,13.8,21.9,0.03,,Overcast,140,2012-12-15 03:55:00
10:15 PM,44.6,37.4,76,29.84,10.0,SE,11.5,-,N/A,,Overcast,140,2012-12-15 04:15:00
10:35 PM,46.4,39.2,76,29.82,10.0,SE,12.7,-,N/A,,Overcast,140,2012-12-15 04:35:00
11:35 PM,50.0,42.8,76,29.80,10.0,SSE,9.2,-,0.01,,Overcast,160,2012-12-15 05:35:00
11:55 PM,51.8,44.6,76,29.79,10.0,South,18.4,25.3,0.01,,Overcast,180,2012-12-15 05:55:00